Location: Slidell
(30.2789°N, 89.7378°W)
Time: 06:43:49
(UTC-05:00)

Daily predictions for brighter satellites

Satellite Brightness Start Highest point End
(mag) Time Altitude Azimuth Time Altitude Azimuth Time Altitude Azimuth
Cosmos 1805 Rocket 4.3 19:50:14 10° NNE 19:54:09 33° E 19:58:02 10° SE
Cosmos 2154 Rocket 4.4 19:48:55 10° SSE 19:54:44 42° E 20:00:32 10° NNE
SL-8 R/B 3.7 19:50:06 10° SW 19:54:51 75° SE 19:59:38 10° NE
ATLAS CENTAUR R/B 1.5 19:51:37 10° S 19:54:58 38° ESE 19:58:25 10° NE
Cosmos 2184 Rocket 4.0 19:51:53 10° S 19:58:03 87° E 20:04:13 10° N
NOSS 2-1 (E) 4.3 20:00:53 10° SW 20:04:24 46° WNW 20:08:03 10° NNE
Resurs 01 Rocket 3.3 20:02:20 10° ESE 20:05:11 17° ENE 20:08:02 10° NNE
SJ-6B 3.2 20:04:54 10° SSE 20:08:47 45° ENE 20:12:37 10° N
Haruka 3.5 20:00:36 10° W 20:12:26 81° SSW 20:15:52 13° ESE
deb Centaur AC-2 4.0 20:09:13 10° W 20:13:32 88° S 20:17:41 13° E
Cosmos 1939 Rocket 4.1 20:13:06 13° ESE 20:15:37 23° ENE 20:18:41 10° NNE
NOSS 3-3 (A) 4.1 20:12:06 10° SSW 20:17:59 79° WNW 20:24:22 10° NNE
Cosmos 2341 Rocket 4.4 20:12:07 10° SSE 20:18:04 43° E 20:24:00 10° NNE
NOSS 3-3 (C) 4.1 20:12:12 10° SSW 20:18:05 80° WNW 20:24:28 10° NNE
NOSS 0 Rocket 4.1 20:13:17 10° S 20:19:11 51° ESE 20:25:09 10° NNE
Aureole 2 4.4 20:22:24 10° S 20:25:27 42° ESE 20:28:17 10° NNE
Cosmos 1980 3.9 20:20:35 10° S 20:26:00 48° ESE 20:31:26 10° NNE
Cosmos 494 Rocket 4.3 20:24:21 10° NNW 20:29:32 71° WSW 20:34:44 10° S
USA 267 4.3 20:28:57 10° ENE 20:33:43 21° ESE 20:38:29 10° S
Cosmos 1666 Rocket 3.6 20:30:29 10° N 20:34:54 62° E 20:39:01 12° SSE
GPS 2-05 Rocket1 3.8 20:32:53 10° W 20:36:01 36° SSW 20:37:37 22° SSE
Cosmos 2333 Rocket 2.4 20:31:07 10° SSW 20:36:46 78° WNW 20:42:26 10° NNE
ERS-2 2.0 20:34:32 14° SSE 20:37:39 74° ENE 20:41:19 10° N
Resurs 1-3 4.0 20:35:47 21° SE 20:38:20 42° ENE 20:42:29 10° N
Cosmos 1151 Rocket 3.5 20:35:40 16° SSE 20:38:34 36° E 20:42:29 10° NNE
CZ-2D R/B 3.5 20:34:58 10° S 20:38:44 67° W 20:42:31 10° NNW
Cosmos 1455 2.0 20:35:12 10° S 20:38:59 74° E 20:42:49 10° N
Meteor 2-21 Rocket 4.4 20:33:38 10° S 20:39:44 86° E 20:45:55 10° N
Meteor 1-27 4.2 20:34:13 10° S 20:39:56 73° E 20:45:37 10° NNE
USA 186 1.1 20:40:40 48° NE 20:40:40 48° NE 20:42:37 10° N
COSMOS 2428 4.3 20:36:45 10° SW 20:42:02 38° WNW 20:47:22 10° N
SL-8 Rocket 4.3 20:37:31 10° SSE 20:43:27 45° E 20:49:22 10° NNE
Sich 1 2.9 20:40:37 10° N 20:44:53 87° W 20:49:06 10° S
Cosmos 1844 Rocket 2.6 20:40:36 10° NNW 20:46:18 86° ENE 20:50:46 17° SSE
Envisat 3.4 20:43:04 10° S 20:48:06 64° W 20:53:08 10° NNW
YAOGAN 6 2.4 20:48:33 28° SSE 20:50:21 77° ENE 20:53:57 10° N
Cosmos 2219 Rocket 3.3 20:45:55 10° SW 20:51:20 47° WNW 20:56:47 10° N
Cosmos 1892 2.7 20:48:42 10° N 20:52:35 84° W 20:55:08 20° S
Cosmos 1844 3.7 20:47:26 10° NNW 20:53:10 75° ENE 20:56:42 24° SSE
Cosmos 2237 Rocket 2.1 20:47:43 10° SSW 20:53:19 80° ESE 20:58:56 10° NNE
Cosmos 2251 Rocket 3.6 20:48:58 10° NNW 20:54:20 79° WSW 20:58:38 16° S
SJ-11-01 4.4 20:53:31 31° SE 20:55:31 55° ENE 21:00:05 10° N
Cosmos 2056 Rocket 3.9 20:57:10 26° SSE 20:59:40 41° E 21:04:43 10° NNE
Genesis I 4.1 21:01:23 10° N 21:05:02 34° NE 21:05:02 34° NE
Cosmos 1633 Rocket 3.4 21:02:37 10° NNW 21:06:55 64° W 21:09:49 20° S
Cosmos 2098 Rocket 3.6 21:07:14 43° E 21:07:14 43° E 21:11:07 10° NNE
NOAA 11 4.3 21:05:46 37° SE 21:07:46 58° ENE 21:13:10 10° N
Cosmos 2278 Rocket 2.7 21:03:35 10° N 21:08:53 40° ENE 21:09:51 37° E
Nadezhda 3 Rocket 4.4 21:03:22 10° NNW 21:09:37 64° W 21:15:53 10° S
Cosmos 1515 Rocket 3.7 21:07:54 11° S 21:12:08 75° W 21:16:36 10° N
Cosmos 864 Rocket 4.4 21:12:07 32° SSE 21:14:54 58° E 21:20:54 10° NNE
Cosmos 1624 Rocket 3.9 21:13:55 28° S 21:16:39 65° ESE 21:21:47 10° NNE
Cosmos 2228 Rocket 3.4 21:13:14 12° SSW 21:17:14 64° W 21:21:36 10° N
Sakura Rocket 2.8 21:16:49 10° W 21:21:08 69° SSW 21:21:08 69° SSW
ATLAS 2A CENTAUR R/B 4.0 21:02:23 10° WSW 21:23:11 58° SSE 21:27:45 37° ESE
ASTRO E2 3.3 21:23:00 10° WSW 21:26:03 49° WSW 21:26:03 49° WSW
Spot 2 Rocket 3.7 21:29:13 41° S 21:30:56 68° WSW 21:36:01 10° NNW
Cosmos 1825 3.3 21:27:22 10° N 21:29:47 37° N 21:29:47 37° N
OAO 2 Rocket 3.2 21:28:19 10° WNW 21:33:32 84° SSW 21:33:39 83° SSE
ATLAS 2AS CENTAUR R/B 2.8 21:30:01 10° NNW 21:37:46 88° ENE 21:39:43 53° SSE
Resurs 01 Rocket 3.2 21:39:36 24° SW 21:41:21 32° W 21:45:20 10° NW
SL-16 R/B 2.0 21:43:11 79° SSE 21:43:30 84° ESE 21:49:10 10° NNE
GEOS 3 Rocket 3.9 21:39:37 10° NNE 21:43:44 54° NE 21:43:44 54° NE
Cosmos 2344 3.4 21:39:31 10° SSW 21:47:14 64° ESE 21:54:55 10° NE
ARGOS 3.4 21:48:16 57° NNE 21:48:16 57° NNE 21:52:48 10° N
Cosmos 1727 Rocket 3.9 21:52:28 10° N 21:58:14 75° NE 21:58:14 75° NE
Meteor 2-10 Rocket 4.3 22:01:52 44° SW 22:03:16 55° W 22:08:58 10° N
ERS-1 Rocket 4.2 22:10:08 36° N 22:10:08 36° N 22:13:05 10° N
NOSS 3-4 (A) 4.3 22:01:17 10° NNW 22:07:53 46° NE 22:07:53 46° NE
NOSS 3-4 (C) 4.4 22:01:23 10° NNW 22:07:59 45° NE 22:07:59 45° NE
H-2A R/B 3.1 22:17:10 39° NNW 22:17:10 39° NNW 22:20:14 10° NNW
USA 267 3.3 22:10:27 10° NE 22:16:58 75° NW 22:23:28 10° SW
Cosmos 2278 Rocket 4.3 22:48:30 10° NW 22:51:44 20° W 22:51:44 20° W
